Garrison, ND

8:21 PM CST on December 03, 2016 (GMT -0600)
Garrison

Weather History for KN60 - March, 2013

Change the Weather History Date:

Friday, March 8, 2013

  Actual Average Record
Temperature  
Mean Temperature 17 °F -  
Max Temperature 24 °F - 48 °F (2015)
Min Temperature 9 °F - -20 °F (2003)
Degree Days  
Heating Degree Days 48    
Month to date heating degree days 359  
Cooling Degree Days 0    
Month to date cooling degree days 0  
Year to date cooling degree days 0  
Moisture  
Dew Point 14 °F    
Average Humidity 80    
Maximum Humidity 92    
Minimum Humidity 68    
Precipitation  
Precipitation 0.00 in - 0.06 in (2005)
Month to date precipitation 0.40  
Year to date precipitation 1.49  
Sea Level Pressure  
Sea Level Pressure 30.21 in    
Wind  
Wind Speed 4 mph (NNE)    
Max Wind Speed 13 mph    
Max Gust Speed 15 mph    
T = Trace of Precipitation, MM = Missing Value Source: NWS Daily Summary

Daily Weather History Graph

Daily Weather History Graph

Search for Another Location

Airport or City:

Trip Planner

Search our weather history database for the weather conditions in past years. The results will help you decide how hot, cold, wet, or windy it might be!

Date:

Astronomy

Mar. 08, 2013 Rise Set
Actual Time 7:12 AM CST 6:41 PM CST
Civil Twilight 6:41 AM CST 7:12 PM CST
Nautical Twilight 6:05 AM CST 7:47 PM CST
Astronomical Twilight 5:29 AM CST 8:24 PM CST
Moon 5:09 AM CST (3/8) 3:28 PM CST (3/8)
Length of Visible Light 12h 30m
Length of Day
11h 29m
Waning Crescent, 11% of the Moon is Illuminated
Mar 8
Waning Crescent
Mar 11
New
Mar 19
First Quarter
Mar 27
Full
Apr 2
Last Quarter

Hourly Weather History & Observations

Time (CST) Temp. Windchill Dew Point Humidity Pressure Visibility Wind Dir Wind Speed Gust Speed Precip Events Conditions
12:52 AM 17.1 °F - 15.1 °F 92% 30.22 in - Calm Calm - N/A   Unknown
1:52 AM 12.9 °F - 10.0 °F 88% 30.25 in - Calm Calm - N/A   Unknown
2:52 AM 15.1 °F 9.4 °F 12.9 °F 91% 30.24 in - West 3.5 mph - N/A   Unknown
3:52 AM 15.1 °F - 10.9 °F 84% 30.23 in - Calm Calm - N/A   Unknown
4:52 AM 18.0 °F 11.1 °F 16.0 °F 92% 30.22 in - West 4.6 mph - N/A   Unknown
5:52 AM 18.0 °F 6.1 °F 15.1 °F 88% 30.23 in - WNW 10.4 mph - N/A   Unknown
6:52 AM 12.9 °F 3.8 °F 10.9 °F 92% 30.25 in - NW 5.8 mph - N/A   Unknown
7:52 AM 10.0 °F 1.8 °F 8.1 °F 92% 30.26 in - NNW 4.6 mph - N/A   Unknown
8:52 AM 14.0 °F -0.2 °F 10.9 °F 88% 30.26 in - NNW 12.7 mph - N/A   Unknown
9:52 AM 15.1 °F - 14.0 °F 95% 30.26 in - Calm Calm - N/A   Unknown
10:52 AM 19.0 °F 13.9 °F 12.9 °F 77% 30.27 in - NNW 3.5 mph - N/A   Unknown
11:52 AM 19.0 °F 11.1 °F 12.9 °F 77% 30.26 in - NNW 5.8 mph - N/A   Unknown
12:52 PM 21.0 °F - 12.9 °F 71% 30.27 in - Calm Calm - N/A   Unknown
1:52 PM 19.9 °F - 15.1 °F 81% 30.26 in - Calm Calm - N/A   Unknown
2:52 PM 21.9 °F - 16.0 °F 78% 30.21 in - Calm Calm - N/A   Unknown
3:52 PM 24.1 °F 16.0 °F 16.0 °F 71% 30.18 in - NNE 6.9 mph - N/A   Unknown
4:52 PM 23.0 °F 15.8 °F 17.1 °F 78% 30.17 in - NE 5.8 mph - N/A   Unknown
5:52 PM 23.0 °F 17.0 °F 17.1 °F 78% 30.14 in - NE 4.6 mph - N/A   Unknown
6:52 PM 21.9 °F 14.5 °F 16.0 °F 78% 30.14 in - East 5.8 mph - N/A   Unknown
7:52 PM 21.9 °F 14.5 °F 16.0 °F 78% 30.15 in - East 5.8 mph - N/A   Unknown
8:52 PM 21.9 °F 11.7 °F 17.1 °F 82% 30.14 in - East 9.2 mph - N/A   Unknown
9:52 PM 21.0 °F 12.4 °F 17.1 °F 85% 30.15 in - ESE 6.9 mph - N/A   Unknown
10:52 PM 19.9 °F 11.1 °F 17.1 °F 89% 30.13 in - ESE 6.9 mph - N/A   Unknown
11:52 PM 19.9 °F - 17.1 °F 89% 30.10 in - Calm Calm - N/A   Unknown